1,427,574개(30380/71379페이지)
LECTURE
번호 제목 글쓴이 조회 날짜
819994 DAKING. CO - ADVERTISING TOOL AND BE THE TherkildsenEliasen1461 1 2022.02.18 11:01
819993 Czy Przedszkole Zatem Stara Efektywna Wo 사진 EspensenTemple9364 0 2022.02.18 10:52
819992 Texas Hold'em ? The Only Game In Town KoefoedEwing6534 2 2022.02.18 10:52
819991 Bagaimana Mesin Judi Joker123 Online Dap MedeirosYde3194 4 2022.02.18 10:52
819990 Gambling Poker Players - Bringing Out Th KlingeGravgaard7365 4 2022.02.18 10:52
819989 Poker Training Network: How You Can Make JiangAvery7489 4 2022.02.18 10:52
819988 人氣連載小说 最佳女婿 txt- 第2167章 深层的含义 冷汗直流 取友必端 사진 FriedrichsenDemant2412 3 2022.02.18 10:51
819987 ENEA SA Raport Okresowy Półroczny Za 202 BrownHeath9766 5 2022.02.18 10:51
819986 Arquivos Disfunção Erétil 사진 MarkWoodard1949 6 2022.02.18 10:51
819985 Jakie Są Rodzaje Tłumaczeń Pisemnych? EbsenKruse5924 5 2022.02.18 10:51
819984 No Limit Texas Holdem Poker - An Amazing PoeCarney3184 5 2022.02.18 10:51
819983 Sciatic Nerve Pain Cures - 10 Tips For S JansenDegn8170 4 2022.02.18 10:51
819982 Playing Your Cards Right - A Guide For T ClancySchultz3190 3 2022.02.18 10:51
819981 Top 9 Tips And Tricks To Online 5 Card D TychsenByskov0140 8 2022.02.18 10:50
819980 9 Ust. 1 Projektowanej Ustawy? 사진 JenningsBuchanan5302 5 2022.02.18 10:49
819979 It Can Be Our Job To Coach Yourself On W ValdezSteen5700 7 2022.02.18 10:49
819978 Look at the furniture you already have. CraneMurphy6197 7 2022.02.18 10:49
819977 爱不释手的小说 最佳女婿- 第1749章 必死无疑 大破大立 豈餘心之可懲 看書 사진 WrightBolton1087 15 2022.02.18 10:48
819976 How To Play 7 Card Stud Poker LadefogedChappell5241 8 2022.02.18 10:48
819975 Getting Fit: Tips And Tricks For Losing DouglasBrodersen9912 8 2022.02.18 10:48